Regional Weather Roundup
Issued by NWS

Home | Current Version | Previous Version | Text Only | Print | Product List | Glossary On
Versions: 1 2 3 4 5 6 7 8 9 10 11 12 13 14 15 16 17 18 19 20 21 22 23 24 25 26 27 28 29 30 31 32 33 34 35 36 37 38 39 40 41 42 43 44 45 46 47 48 49 50
000
ASUS43 KDTX 270901
RWRMI
MICHIGAN HOURLY REGIONAL WEATHER ROUNDUP
NATIONAL WEATHER SERVICE DETROIT/PONTIAC MI
500 AM EDT SAT AUG 27 2016

NOTE: "FAIR" INDICATES FEW OR NO CLOUDS BELOW 12,000 FEET WITH NO
SIGNIFICANT WEATHER AND/OR OBSTRUCTION TO VISIBILITY.

MIZ047>049-052>055-059>063-066>070-074>076-081>083-271000-
SOUTHEAST LOWER MICHIGAN

CITY           SKY/WX    TMP DP  RH WIND       PRES   REMARKS
ADRIAN         PTCLDY    69  67  93 CALM      30.14F
ALMA           CLOUDY    62  60  94 CALM      30.16S
ANN ARBOR      CLOUDY    69  64  84 NE3       30.14F
BAD AXE        CLOUDY    59  59 100 CALM      30.17S
CARO           PTCLDY    60  59  97 CALM      30.16R
DETROIT CITY   CLOUDY    72  71  97 CALM      30.16R
DETROIT        CLOUDY    70  65  84 N5        30.15S
FLINT          CLOUDY    67  62  84 CALM      30.17R
GROSSE ILE     MOCLDY    71  68  90 CALM      30.14S
HILLSDALE      CLOUDY    68  64  85 E3        30.14S
HOWELL         CLOUDY    65  64  94 NE3       30.15F

CITY           SKY/WX    TMP DP  RH WIND       PRES   REMARKS
JACKSON        CLOUDY    67  65  93 NE6       30.14F
LAMBERTVILLE   CLOUDY    69  66  92 CALM      30.14F
LANSING        CLOUDY    64  60  87 E3        30.16R
LAPEER         FAIR      61  60  97 CALM      30.18R
MASON          CLOUDY    65  62  89 CALM      30.15F
MONROE         CLOUDY    68  67  98 CALM      30.13F
MT. CLEMENS    CLOUDY    68  65  88 CALM      30.15R
PONTIAC        CLOUDY    67  63  87 CALM      30.16S
PORT HURON     FOG       61  61 100 CALM      30.17R VSB 3/4
TRI CITIES     CLOUDY    62  61  96 NE3       30.16S
MIDLAND        FAIR      58  58  99 CALM      30.15S
TROY           PTCLDY    72  61  67 NE3       30.17S
SAGINAW HB     CLOUDY    61  59  94 CALM      30.15R
$$
MIZ043>046-050>051-056>058-064>065-071>073-077>080-271000-
SOUTHWEST LOWER MICHIGAN

CITY           SKY/WX    TMP DP  RH WIND       PRES   REMARKS
BATTLE CREEK   MOCLDY    66  61  84 E6        30.13F
BENTON HARBOR  CLOUDY    68  62  81 E8        30.08F
BIG RAPIDS     MOCLDY    59  58  96 CALM      30.15S
COLDWATER      CLOUDY    68  66  92 CALM      30.12F
FREMONT        CLOUDY    63  56  80 E3        30.12S
HOLLAND        CLOUDY    64  61  90 E6        30.12F
GRAND RAPIDS   CLOUDY    64  58  80 NE7       30.14F
IONIA          FAIR      62  58  88 E6        30.14F
KALAMAZOO      CLOUDY    68  60  75 CALM      30.12F
LUDINGTON      CLOUDY    60  58  94 CALM      30.12S
MARSHALL       MOCLDY    66  63  88 CALM      30.13F
MOUNT PLEASANT CLOUDY    59  58  94 CALM      30.15F
MUSKEGON       CLOUDY    65  58  78 N6        30.14R
SOUTH HAVEN    CLOUDY    67  63  89 E7        30.09F
$$
MIZ016>042-271000-
NORTHERN LOWER MICHIGAN

CITY           SKY/WX    TMP DP  RH WIND       PRES   REMARKS
ALPENA         CLOUDY    59  55  87 CALM      30.18F
BEAVER ISLAND  LGT RAIN  64  62  93 E5        30.16F
BELLAIRE       MOCLDY    58  57  96 CALM      30.16F
CADILLAC       CLOUDY    58  55  89 E5        30.16F
CHARLEVOIX     MOCLDY    61  59  91 CALM      30.19F
FRANKFORT      CLOUDY    63  57  82 CALM      30.14F
GAYLORD        MOCLDY    61  55  81 CALM      30.18F
GRAYLING       MOCLDY    56  55  96 CALM      30.19S
HARBOR SPRINGS PTCLDY    60  58  94 NE5       30.16F
HOUGHTON LAKE  MOCLDY    56  54  93 E3        30.18S
MANISTEE       CLOUDY    59  57  93 E3        30.12F
OSCODA         PTCLDY    60  59  98 CALM      30.16S
PELLSTON       MOCLDY    56  53  90 CALM      30.18S
ROGERS CITY    CLOUDY    58  56  92 CALM      30.18F
TRAVERSE CITY  CLOUDY    62  58  86 CALM      30.14F
$$
MIZ007>008-015-271000-
EASTERN UPPER MICHIGAN

CITY           SKY/WX    TMP DP  RH WIND       PRES   REMARKS
KINROSS        CLOUDY    56  53  90 E3        30.18S
MACKINAC ISLAN PTCLDY    59  54  83 CALM      30.18S
NEWBERRY       CLOUDY    57  56  96 CALM      30.17F
S. S. MARIE    MOCLDY    56  53  90 CALM      30.17S
$$
MIZ004>006-011>014-085-271000-
CENTRAL UPPER MICHIGAN

CITY           SKY/WX    TMP DP  RH WIND       PRES   REMARKS
MANISTIQUE     CLOUDY    60  57  91 CALM      30.15F
ESCANABA       CLOUDY    64  62  93 NE6       30.14F
MENOMINEE      RAIN     N/A N/A N/A MISG        N/A
SAWYER-GWINN   PTCLDY    51  50  95 CALM      30.18R
$$
MIZ001>003-009>011-084-271000-
WESTERN UPPER MICHIGAN

CITY           SKY/WX    TMP DP  RH WIND       PRES   REMARKS
IRON MOUNTAIN  CLOUDY    57  54  89 CALM      30.14F
HOUGHTON       CLOUDY    50  48  93 CALM      30.15R
IRONWOOD       CLOUDY    52  50  93 CALM      30.16R
$$

ABBREVIATIONS USED IN REMARKS
   TC - TEMPERATURE IN CELSIUS
  WCI - WIND CHILL INDEX
   HX - HEAT INDEX
  VSB - VISIBILITY





USA.gov is the U.S. government's official web portal to all federal, state and local government web resources and services.